TimeCDT,TemperatureF,Dew PointF,Humidity,Sea Level PressureIn,VisibilityMPH,Wind Direction,Wind SpeedMPH,Gust SpeedMPH,PrecipitationIn,Events,Conditions,WindDirDegrees,DateUTC
12:53 AM,69.1,62.1,78,29.90,10.0,SSE,15.0,24.2,0.00,,Overcast,150,2013-06-15 05:53:00
1:53 AM,66.9,63.0,87,29.89,10.0,SE,10.4,-,N/A,,Overcast,140,2013-06-15 06:53:00
2:53 AM,66.9,63.0,87,29.89,10.0,SSE,6.9,-,N/A,,Overcast,150,2013-06-15 07:53:00
3:53 AM,66.9,63.0,87,29.88,10.0,SE,5.8,-,N/A,,Overcast,130,2013-06-15 08:53:00
4:53 AM,66.9,63.0,87,29.86,10.0,SSE,5.8,-,N/A,,Mostly Cloudy,160,2013-06-15 09:53:00
5:53 AM,66.0,63.0,90,29.88,10.0,SSE,3.5,-,N/A,,Mostly Cloudy,160,2013-06-15 10:53:00
6:53 AM,66.0,64.0,93,29.87,9.0,SE,4.6,-,N/A,,Mostly Cloudy,130,2013-06-15 11:53:00
7:53 AM,69.1,64.0,84,29.88,10.0,South,4.6,-,N/A,,Mostly Cloudy,180,2013-06-15 12:53:00
8:53 AM,72.0,64.9,78,29.88,10.0,Calm,Calm,-,N/A,,Mostly Cloudy,0,2013-06-15 13:53:00
9:53 AM,72.0,64.9,78,29.90,10.0,SSE,4.6,-,N/A,,Overcast,160,2013-06-15 14:53:00
10:53 AM,73.9,66.0,76,29.88,10.0,Calm,Calm,-,N/A,,Overcast,0,2013-06-15 15:53:00
11:22 AM,75.2,66.2,73,29.88,10.0,Calm,Calm,-,N/A,,Overcast,0,2013-06-15 16:22:00
11:37 AM,75.2,66.2,73,29.87,10.0,Calm,Calm,-,N/A,,Overcast,0,2013-06-15 16:37:00
11:53 AM,75.9,66.9,74,29.87,10.0,SSE,3.5,-,N/A,,Overcast,160,2013-06-15 16:53:00
12:16 PM,75.2,66.2,73,29.91,10.0,South,10.4,-,N/A,,Overcast,170,2013-06-15 17:16:00
12:53 PM,75.9,66.9,74,29.89,10.0,SSW,6.9,-,N/A,,Overcast,200,2013-06-15 17:53:00
1:53 PM,75.9,66.9,74,29.87,10.0,WSW,3.5,-,N/A,,Overcast,240,2013-06-15 18:53:00
2:53 PM,75.0,68.0,79,29.86,9.0,WSW,4.6,-,N/A,,Overcast,250,2013-06-15 19:53:00
3:04 PM,75.2,68.0,78,29.86,4.0,SW,5.8,-,0.00,Rain-Thunderstorm,Light Thunderstorms and Rain,230,2013-06-15 20:04:00
3:48 PM,68.0,64.4,88,29.91,5.0,West,8.1,-,0.01,Rain-Thunderstorm,Light Thunderstorms and Rain,280,2013-06-15 20:48:00
3:53 PM,68.0,64.0,87,29.91,4.0,NNW,10.4,-,0.01,Rain-Thunderstorm,Light Thunderstorms and Rain,330,2013-06-15 20:53:00
4:12 PM,66.2,62.6,88,29.91,9.0,North,8.1,-,0.01,Rain,Light Rain,360,2013-06-15 21:12:00
4:53 PM,68.0,63.0,84,29.87,10.0,North,8.1,-,0.01,,Mostly Cloudy,10,2013-06-15 21:53:00
5:53 PM,73.9,63.0,68,29.84,10.0,NNW,8.1,-,N/A,,Partly Cloudy,330,2013-06-15 22:53:00
6:53 PM,75.0,62.1,64,29.85,10.0,NW,4.6,-,N/A,,Partly Cloudy,310,2013-06-15 23:53:00
7:53 PM,75.0,61.0,62,29.85,10.0,WNW,4.6,-,N/A,,Partly Cloudy,290,2013-06-16 00:53:00
8:53 PM,73.0,61.0,66,29.85,10.0,Calm,Calm,-,N/A,,Partly Cloudy,0,2013-06-16 01:53:00
9:53 PM,69.1,62.1,78,29.87,10.0,Calm,Calm,-,N/A,,Partly Cloudy,0,2013-06-16 02:53:00
10:53 PM,69.1,63.0,81,29.88,10.0,Calm,Calm,-,N/A,,Clear,0,2013-06-16 03:53:00
11:53 PM,66.0,62.1,87,29.89,9.0,Calm,Calm,-,N/A,,Clear,0,2013-06-16 04:53:00